* Astronomy

Members Login
Post Info TOPIC: Asteroid 2010 PQ10


L

Posts: 131433
Date:
Asteroid 2010 PQ10
Permalink  
 


Orbital elements:
2010 PQ10 Earth MOID = 0.1329 AU
Epoch 2010 July 23.0 TT = JDT 2455400.5 MPC
M 167.63971 (2000.0) P Q
n 1.27331728 Peri. 6.82713 -0.63386753 -0.70623645
a 0.8430338 Node 123.05335 +0.69064112 -0.70036730
e 0.3753324 Incl. 22.10052 +0.34817638 +0.10351677
P 0.77 H 21.4 G 0.15 U 8

MPEC 2010 - P41


__________________
Page 1 of 1  sorted by
 
Quick Reply

Please log in to post quick replies.



Create your own FREE Forum
Report Abuse
Powered by ActiveBoard